0 HST 1 20580U 90037B 26033.96221343 .00008282 00000-0 27848-3 0 9990 2 20580 28.4669 276.8051 0002014 87.5002 272.5824 15.28919278767990 0 ISS (ZARYA) 1 25544U 98067A 26034.04958920 .00010142 00000-0 19604-3 0 9993 2 25544 51.6308 243.5964 0011016 59.0626 301.1443 15.48354905550960 0 CXO 1 25867U 99040B 26034.50897227 .00000739 00000-0 00000-0 0 9994 2 25867 54.0018 120.6888 8050674 310.8579 0.1951 0.37804724 16822